Santa Monica, CA

5:51 PM PDT on July 25, 2017 (GMT -0700)
Santa Monica Municipal

Weather History for KSMO - November, 2012

Change the Weather History Date:

Friday, November 30, 2012

  Actual Average Record
Temperature  
Mean Temperature 62 °F -  
Max Temperature 64 °F 69 °F 90 °F (1964)
Min Temperature 60 °F 48 °F 39 °F (2006)
Degree Days  
Heating Degree Days 3    
Growing Degree Days 12 (Base 50)    
Moisture  
Dew Point 61 °F    
Average Humidity 94    
Maximum Humidity 97    
Minimum Humidity 90    
Precipitation  
Precipitation 0.98 in - - ()
Sea Level Pressure  
Sea Level Pressure 30.12 in    
Wind  
Wind Speed 1 mph (SE)    
Max Wind Speed 8 mph    
Max Gust Speed -    
Visibility 4 miles    
Events Rain    
Averages and records for this station are not official NWS values.
T = Trace of Precipitation, MM = Missing Value Source: NWS Daily Summary

Daily Weather History Graph

Daily Weather History Graph

Search for Another Location

Airport or City:

Trip Planner

Search our weather history database for the weather conditions in past years. The results will help you decide how hot, cold, wet, or windy it might be!

Date:

Astronomy

Nov. 30, 2012 Rise Set
Actual Time 6:40 AM PST 4:44 PM PST
Civil Twilight 6:13 AM PST 5:11 PM PST
Nautical Twilight 5:42 AM PST 5:42 PM PST
Astronomical Twilight 5:12 AM PST 6:12 PM PST
Moon 6:43 PM PST (11/30) 8:16 AM PST (11/30)
Length of Visible Light 10h 58m
Length of Day
10h 03m
Waning Gibbous, 96% of the Moon is Illuminated
Nov 30
Waning Gibbous
Dec 6
Last Quarter
Dec 13
New
Dec 19
First Quarter
Dec 28
Full

Hourly Weather History & Observations

Time (PST) Temp. Dew Point Humidity Pressure Visibility Wind Dir Wind Speed Gust Speed Precip Events Conditions
12:34 AM 62.6 °F 60.8 °F 94% 30.14 in 1.8 mi Calm Calm - 0.02 in Rain Light Rain
12:43 AM 62.6 °F 60.8 °F 94% 30.14 in 2.0 mi Calm Calm - 0.03 in Rain Light Rain
12:51 AM 62.1 °F 60.1 °F 93% 30.14 in 2.5 mi Calm Calm - 0.03 in   Overcast
12:59 AM 62.6 °F 60.8 °F 94% 30.14 in 3.0 mi Calm Calm - N/A   Overcast
1:14 AM 62.6 °F 60.8 °F 94% 30.14 in 2.0 mi Calm Calm - 0.00 in Rain Light Rain
1:47 AM 62.6 °F 60.8 °F 94% 30.14 in 2.0 mi Calm Calm - 0.02 in Rain Light Rain
1:51 AM 62.1 °F 60.1 °F 93% 30.14 in 2.0 mi East 3.5 mph - 0.02 in Rain Light Rain
2:03 AM 62.6 °F 60.8 °F 94% 30.14 in 2.0 mi Calm Calm - 0.01 in Rain Light Rain
2:14 AM 62.6 °F 60.8 °F 94% 30.13 in 1.8 mi Calm Calm - 0.01 in Rain Light Rain
2:26 AM 62.6 °F 60.8 °F 94% 30.13 in 2.5 mi Calm Calm - 0.01 in Rain Light Rain
2:51 AM 62.1 °F 60.1 °F 93% 30.13 in 2.0 mi Calm Calm - 0.02 in Rain Light Rain
2:58 AM 62.6 °F 60.8 °F 94% 30.13 in 1.8 mi Calm Calm - 0.00 in Rain Light Rain
3:02 AM 62.6 °F 60.8 °F 94% 30.13 in 1.8 mi Calm Calm - 0.00 in Rain Light Rain
3:18 AM 62.6 °F 60.8 °F 94% 30.12 in 2.0 mi Calm Calm - 0.01 in Rain Light Rain
3:26 AM 62.6 °F 60.8 °F 94% 30.12 in 1.8 mi Calm Calm - 0.01 in Rain Light Rain
3:51 AM 62.1 °F 60.1 °F 93% 30.11 in 2.0 mi East 3.5 mph - 0.02 in   Overcast
4:17 AM 62.6 °F 60.8 °F 94% 30.11 in 1.8 mi ESE 3.5 mph - 0.02 in Rain Light Rain
4:28 AM 62.6 °F 60.8 °F 94% 30.11 in 2.5 mi ESE 3.5 mph - 0.03 in Rain Light Rain
4:51 AM 62.1 °F 60.1 °F 93% 30.10 in 2.0 mi East 5.8 mph - 0.04 in Rain Light Rain
5:19 AM 62.6 °F 60.8 °F 94% 30.11 in 3.0 mi East 5.8 mph - 0.00 in   Overcast
5:28 AM 62.6 °F 60.8 °F 94% 30.11 in 2.5 mi East 4.6 mph - 0.00 in   Overcast
5:41 AM 62.6 °F 60.8 °F 94% 30.11 in 2.0 mi East 5.8 mph - 0.01 in Rain Light Rain
5:51 AM 62.1 °F 60.1 °F 93% 30.11 in 2.5 mi East 4.6 mph - 0.02 in Rain Rain
6:23 AM 62.6 °F 60.8 °F 94% 30.11 in 1.8 mi East 5.8 mph - 0.11 in Rain Heavy Rain
6:30 AM 62.6 °F 60.8 °F 94% 30.11 in 2.5 mi ESE 5.8 mph - 0.13 in Rain Rain
6:51 AM 62.1 °F 60.1 °F 93% 30.12 in 1.8 mi East 5.8 mph - 0.24 in Rain Heavy Rain
7:10 AM 62.6 °F 60.8 °F 94% 30.12 in 1.0 mi Calm Calm - 0.15 in Rain Heavy Rain
7:49 AM 62.6 °F 60.8 °F 94% 30.14 in 1.0 mi Calm Calm - 0.31 in Rain Rain
7:51 AM 62.1 °F 61.0 °F 96% 30.14 in 1.0 mi Calm Calm - 0.31 in Rain Rain
8:51 AM 63.0 °F 61.0 °F 93% 30.14 in 1.5 mi ENE 3.5 mph - 0.09 in Rain Light Rain
9:51 AM 63.0 °F 62.1 °F 97% 30.14 in 1.2 mi Calm Calm - 0.04 in Rain Rain
10:51 AM 64.0 °F 63.0 °F 96% 30.14 in 1.2 mi Calm Calm - 0.12 in Rain Light Rain
10:58 AM 64.4 °F 62.6 °F 94% 30.14 in 1.5 mi SSW 4.6 mph - 0.01 in Rain Light Rain
11:51 AM 64.0 °F 63.0 °F 96% 30.13 in 1.5 mi South 8.1 mph - 0.03 in Rain Light Rain
12:51 PM 64.0 °F 63.0 °F 96% 30.12 in 3.0 mi SSW 4.6 mph - 0.00 in   Overcast
2:51 PM 64.0 °F 63.0 °F 96% 30.11 in 5.0 mi SSW 3.5 mph - 0.00 in   Overcast
3:51 PM 64.0 °F 62.1 °F 93% 30.12 in 6.0 mi SW 3.5 mph - N/A   Mostly Cloudy
4:36 PM 62.6 °F 60.8 °F 94% 30.08 in 8.0 mi Calm Calm - N/A   Scattered Clouds
4:44 PM 62.6 °F 60.8 °F 94% 30.08 in 10.0 mi Calm Calm - N/A   Mostly Cloudy
4:51 PM 63.0 °F 61.0 °F 93% 30.06 in 10.0 mi SE 5.8 mph - N/A   Mostly Cloudy
5:51 PM 63.0 °F 61.0 °F 93% 30.10 in 10.0 mi Calm Calm - N/A   Overcast
6:51 PM 63.0 °F 61.0 °F 93% 30.11 in 8.0 mi Calm Calm - N/A   Overcast
7:01 PM 62.6 °F 60.8 °F 94% 30.12 in 8.0 mi Calm Calm - N/A   Overcast
7:38 PM 62.6 °F 60.8 °F 94% 30.12 in 6.0 mi Calm Calm - N/A   Mostly Cloudy
7:51 PM 62.1 °F 60.1 °F 93% 30.12 in 3.0 mi Calm Calm - N/A   Scattered Clouds
7:58 PM 62.6 °F 60.8 °F 94% 30.13 in 4.0 mi Calm Calm - N/A   Mostly Cloudy
8:29 PM 62.6 °F 60.8 °F 94% 30.13 in 9.0 mi WSW 4.6 mph - N/A   Overcast
8:51 PM 61.0 °F 59.0 °F 93% 30.13 in 10.0 mi WSW 3.5 mph - N/A   Mostly Cloudy
8:58 PM 60.8 °F 59.0 °F 94% 30.13 in 10.0 mi WSW 3.5 mph - N/A   Overcast
9:51 PM 62.1 °F 59.0 °F 90% 30.13 in 10.0 mi Calm Calm - N/A   Overcast
10:51 PM 61.0 °F 59.0 °F 93% 30.15 in 10.0 mi Calm Calm - N/A   Overcast
10:58 PM 60.8 °F 59.0 °F 94% 30.15 in 10.0 mi Calm Calm - N/A   Overcast
11:51 PM 60.1 °F 57.0 °F 90% 30.15 in 10.0 mi Calm Calm - N/A   Overcast